[Iaude] MPEC P30: 2020 NQ1 [a=2.68,e=0.53,i=10.8,H=20.4]

mpec at marsden.cfa.harvard.edu mpec at marsden.cfa.harvard.edu
Sat Aug 8 16:53:04 EDT 2020


M.P.E.C. 2020-P30                                Issued 2020 August 8, 20:51 UT

     The Minor Planet Electronic Circulars contain information on unusual
         minor planets and routine data on comets.  They are published
    on behalf of Division F of the International Astronomical Union by the
          Minor Planet Center, Smithsonian Astrophysical Observatory,
                          Cambridge, MA 02138, U.S.A.

             Prepared using the Tamkin Foundation Computer Network

                              MPC at CFA.HARVARD.EDU
            URL https://www.minorplanetcenter.net/    ISSN 1523-6714

                                    2020 NQ1                                    


Observations:
     K20N01Q* C2020 07 11.34319 20 24 02.447-15 03 24.11         21.3 wUEP030F51
     K20N01Q  C2020 07 11.36916 20 24 01.270-15 03 01.13         21.3 wUEP030F51
     K20N01Q  C2020 07 11.38211 20 24 00.667-15 02 49.94         21.1 wUEP030F51
     K20N01Q  C2020 07 17.41294 20 19 14.940-13 28 47.74         20.8 wUEP030F51
     K20N01Q  C2020 07 17.42720 20 19 14.085-13 28 33.86         20.7 wUEP030F51
     K20N01Q  C2020 07 17.44150 20 19 13.238-13 28 20.01         20.9 wUEP030F51
     K20N01Q  C2020 07 17.45575 20 19 12.401-13 28 06.07         21.0 wUEP030F51
     K20N01Q  C2020 07 20.43907 20 16 25.875-12 38 31.81         20.6 wUEP030F51
     K20N01Q  C2020 07 20.45080 20 16 25.115-12 38 19.84         21.0 wUEP030F51
     K20N01Q  C2020 07 20.46253 20 16 24.373-12 38 07.86         20.8 wUEP030F51
     K20N01Q  C2020 07 20.47425 20 16 23.624-12 37 55.79         20.8 wUEP030F51
     K20N01Q  C2020 07 29.43598 20 06 54.429-09 58 18.78         20.2 iUEP030F52
     K20N01Q  C2020 07 29.44952 20 06 53.448-09 58 03.49         20.1 iUEP030F52
     K20N01Q  C2020 07 29.46301 20 06 52.449-09 57 48.73         20.3 iUEP030F52
     K20N01Q  C2020 08 07.41407 19 56 53.834-07 07 10.87         20.0 iUEP030F52
     K20N01Q  C2020 08 07.42641 19 56 52.943-07 06 56.22         20.1 iUEP030F52
     K20N01Q  C2020 08 07.43870 19 56 52.074-07 06 41.98         19.9 iUEP030F52
     K20N01Q  C2020 08 07.45097 19 56 51.178-07 06 27.93         20.2 iUEP030F52

Observer details:
F51 Pan-STARRS 1, Haleakala.  Observers J. Bulger, T. Lowe, A. Schultz, M.
    Willman.  Measurers K. Chambers, S. Chastel, T. de Boer, L. Denneau, J.
    Fairlamb, H. Flewelling, M. Huber, C.-C. Lin, E. Magnier, Y. Ramanjooloo,
    R. Wainscoat, R. Weryk.  1.8-m Ritchey-Chretien + CCD.
F52 Pan-STARRS 2, Haleakala.  Observers J. Bulger, T. Dukes, T. Lowe, A.
    Schultz, M. Willman.  Measurers K. Chambers, S. Chastel, T. de Boer, L.
    Denneau, J. Fairlamb, H. Flewelling, M. Huber, C.-C. Lin, E. Magnier, Y.
    Ramanjooloo, R. Wainscoat, R. Weryk.  1.8-m Ritchey-Chretien + CCD.

Orbital elements:
2020 NQ1                                                 Earth MOID = 0.3311 AU
Epoch 2020 May 31.0 TT = JDT 2459000.5                  Weryk
M 328.52523              (2000.0)            P               Q
n   0.22486881     Peri.   78.95678     +0.97866676     -0.10064353
a   2.6782425      Node   286.63316     +0.01184399     +0.89798872
e   0.5283507      Incl.   10.77410     +0.20511238     +0.42835399
P   4.38           H   20.4           G   0.15           U   5
Residuals in seconds of arc
200711 F51  0.1+  0.0     200717 F51  0.0   0.0     200729 F52  0.0   0.2+
200711 F51  0.0   0.1+    200720 F51  0.1-  0.1-    200729 F52  0.1-  0.2-
200711 F51  0.2-  0.1-    200720 F51  0.1-  0.0     200807 F52  0.1+  0.1-
200717 F51  0.1+  0.0     200720 F51  0.1+  0.0     200807 F52  0.0   0.2+
200717 F51  0.1-  0.0     200720 F51  0.2+  0.1+    200807 F52  0.2+  0.1+
200717 F51  0.1-  0.1-    200729 F52  0.2-  0.0     200807 F52  0.1-  0.2-

Ephemeris:
2020 NQ1                 a,e,i = 2.68, 0.53, 11                  q = 1.2632
Date    TT    R. A. (2000) Decl.     Delta      r    Elong.  Phase     V
2020 07 09    20 25 32.0 -15 37 34   0.6566  1.6530   161.7    11.1    21.3
...
2020 07 24    20 12 49.6 -11 36 47   0.5502  1.5624   171.7     5.4    20.5
...
2020 08 01    20 04 01.9 -09 10 07   0.5109  1.5166   166.6     8.9    20.4
...
2020 08 07    19 57 21.0 -07 15 04   0.4889  1.4836   160.3    13.3    20.5
2020 08 08    19 56 16.3 -06 55 42   0.4858  1.4783   159.2    14.1    20.5
2020 08 09    19 55 12.5 -06 36 19   0.4829  1.4730   158.1    14.9    20.5
...
2020 08 15    19 49 19.7 -04 40 25   0.4687  1.4420   151.4    19.6    20.5
...
2020 08 23    19 43 29.7 -02 10 43   0.4576  1.4035   142.9    25.8    20.6
...
2020 09 07    19 41 47.3 +02 02 08   0.4543  1.3414   129.1    35.7    20.8

A. U. Tomatic                (C) Copyright 2020 MPC           M.P.E.C. 2020-P30




More information about the Iaude mailing list